Location: Corralito
(14.1667°N, 87.1833°W)
Time: 09:29:30
(UTC+00:00)

Centaur Rocket - Pass Details

Date: 07 June 2020
Orbit: 257 x 9159 km, 18.1° (Epoch: 11 July)

Event Time Altitude Azimuth Distance (km) Brightness Sun altitude
Rises 02:27:41 0° 263° (W) 5,149 8.4 -28.7°
Reaches altitude 10° 02:32:40 10° 265° (W) 2,991 7.1 -29.6°
Enters shadow 02:37:03 35° 277° (W) 1,024 4.5 -30.5°
